iso_date,epoch_date,Year,Hour,Min,DOY,POS_DOY,Lat,Lon,BP,Ts,Ta,has_bp,has_ts,has_ta,BuoyID,Buoy_Type,Buoy_Owner,Logistics,Hemisphere
2014-01-14T15:00:00Z,1389711600,2014,15,0,14.625,14.625,-77.22985,-34.63368,-999.00,-999.00,-999.0,no,no,no,300234011389160,IMB,AWI-USIABP,unknown,South
2014-01-14T21:00:00Z,1389733200,2014,21,0,14.875,14.875,-77.67374,-28.51671,-999.00,-999.00,-999.0,no,no,no,300234011389160,IMB,AWI-USIABP,unknown,South
2014-01-15T03:00:00Z,1389754800,2014,3,0,15.125,15.125,-77.22086,-34.40847,-999.00,-999.00,-999.0,no,no,no,300234011389160,IMB,AWI-USIABP,unknown,South
2014-01-15T09:00:00Z,1389776400,2014,9,0,15.375,15.375,-76.88374,-28.47185,-999.00,-999.00,-999.0,no,no,no,300234011389160,IMB,AWI-USIABP,unknown,South
2014-01-15T15:00:00Z,1389798000,2014,15,0,15.625,15.625,-77.19315,-34.54182,-999.00,-999.00,-999.0,no,no,no,300234011389160,IMB,AWI-USIABP,unknown,South
2014-01-15T21:00:00Z,1389819600,2014,21,0,15.875,15.875,-77.22086,-34.40847,-999.00,-999.00,-999.0,no,no,no,300234011389160,IMB,AWI-USIABP,unknown,South
2014-01-16T03:00:00Z,1389841200,2014,3,0,16.125,16.125,-77.22985,-34.63368,-999.00,-999.00,-999.0,no,no,no,300234011389160,IMB,AWI-USIABP,unknown,South
2014-01-16T09:00:00Z,1389862800,2014,9,0,16.375,16.375,-77.32707,-34.55057,-999.00,-999.00,-999.0,no,no,no,300234011389160,IMB,AWI-USIABP,unknown,South
2014-01-16T15:00:00Z,1389884400,2014,15,0,16.625,16.625,-77.27845,-34.59229,-999.00,-999.00,-999.0,no,no,no,300234011389160,IMB,AWI-USIABP,unknown,South
2014-01-16T21:00:00Z,1389906000,2014,21,0,16.875,16.875,-77.29826,-34.45818,-999.00,-999.00,-999.0,no,no,no,300234011389160,IMB,AWI-USIABP,unknown,South
2014-01-17T03:00:00Z,1389927600,2014,3,0,17.125,17.125,-77.33594,-34.77783,-999.00,-999.00,-999.0,no,no,no,300234011389160,IMB,AWI-USIABP,unknown,South
2014-01-17T09:00:00Z,1389949200,2014,9,0,17.375,17.375,-77.30721,-34.68484,-999.00,-999.00,-999.0,no,no,no,300234011389160,IMB,AWI-USIABP,unknown,South
2014-01-17T15:00:00Z,1389970800,2014,15,0,17.625,17.625,-77.33594,-34.77783,-999.00,-999.00,-999.0,no,no,no,300234011389160,IMB,AWI-USIABP,unknown,South
2014-01-17T21:00:00Z,1389992400,2014,21,0,17.875,17.875,-77.47971,-32.63594,-999.00,-999.00,-999.0,no,no,no,300234011389160,IMB,AWI-USIABP,unknown,South
2014-01-18T03:00:00Z,1390014000,2014,3,0,18.125,18.125,-77.39243,-34.73666,-999.00,-999.00,-999.0,no,no,no,300234011389160,IMB,AWI-USIABP,unknown,South
2014-01-18T09:00:00Z,1390035600,2014,9,0,18.375,18.375,-77.49182,-36.90298,-999.00,-999.00,-999.0,no,no,no,300234011389160,IMB,AWI-USIABP,unknown,South
2014-01-18T15:00:00Z,1390057200,2014,15,0,18.625,18.625,-77.39243,-34.73666,-999.00,-999.00,-999.0,no,no,no,300234011389160,IMB,AWI-USIABP,unknown,South
2014-01-18T21:00:00Z,1390078800,2014,21,0,18.875,18.875,-77.43214,-34.46614,-999.00,-999.00,-999.0,no,no,no,300234011389160,IMB,AWI-USIABP,unknown,South
2014-01-19T03:00:00Z,1390100400,2014,3,0,19.125,19.125,-77.44983,-34.9245,-999.00,-999.00,-999.0,no,no,no,300234011389160,IMB,AWI-USIABP,unknown,South
2014-01-19T09:00:00Z,1390122000,2014,9,0,19.375,19.375,-77.45265,-33.73579,-999.00,-999.00,-999.0,no,no,no,300234011389160,IMB,AWI-USIABP,unknown,South
2014-01-19T15:00:00Z,1390143600,2014,15,0,19.625,19.625,-77.55497,-34.84228,-999.00,-999.00,-999.0,no,no,no,300234011389160,IMB,AWI-USIABP,unknown,South
2014-01-19T21:00:00Z,1390165200,2014,21,0,19.875,19.875,-77.60367,-34.80067,-999.00,-999.00,-999.0,no,no,no,300234011389160,IMB,AWI-USIABP,unknown,South
2014-01-20T03:00:00Z,1390186800,2014,3,0,20.125,20.125,-77.68112,-34.85446,-999.00,-999.00,-999.0,no,no,no,300234011389160,IMB,AWI-USIABP,unknown,South
2014-01-20T09:00:00Z,1390208400,2014,9,0,20.375,20.375,-77.64097,-35.12912,-999.00,-999.00,-999.0,no,no,no,300234011389160,IMB,AWI-USIABP,unknown,South
2014-01-20T15:00:00Z,1390230000,2014,15,0,20.625,20.625,-77.68112,-34.85446,-999.00,-999.00,-999.0,no,no,no,300234011389160,IMB,AWI-USIABP,unknown,South
2014-01-20T21:00:00Z,1390251600,2014,21,0,20.875,20.875,-77.61846,-36.70286,-999.00,-999.00,-999.0,no,no,no,300234011389160,IMB,AWI-USIABP,unknown,South
2014-01-21T03:00:00Z,1390273200,2014,3,0,21.125,21.125,-77.66108,-34.99202,-999.00,-999.00,-999.0,no,no,no,300234011389160,IMB,AWI-USIABP,unknown,South
2014-01-21T09:00:00Z,1390294800,2014,9,0,21.375,21.375,-77.72986,-36.02737,-999.00,-999.00,-999.0,no,no,no,300234011389160,IMB,AWI-USIABP,unknown,South
2014-01-21T15:00:00Z,1390316400,2014,15,0,21.625,21.625,-77.66108,-34.99202,-999.00,-999.00,-999.0,no,no,no,300234011389160,IMB,AWI-USIABP,unknown,South
2014-01-21T21:00:00Z,1390338000,2014,21,0,21.875,21.875,-77.68112,-34.85446,-999.00,-999.00,-999.0,no,no,no,300234011389160,IMB,AWI-USIABP,unknown,South
2014-01-22T03:00:00Z,1390359600,2014,3,0,22.125,22.125,-77.66108,-34.99202,-999.00,-999.00,-999.0,no,no,no,300234011389160,IMB,AWI-USIABP,unknown,South
2014-01-22T09:00:00Z,1390381200,2014,9,0,22.375,22.375,-77.64097,-35.12912,-999.00,-999.00,-999.0,no,no,no,300234011389160,IMB,AWI-USIABP,unknown,South
2014-01-22T15:00:00Z,1390402800,2014,15,0,22.625,22.625,-77.66959,-35.22565,-999.00,-999.00,-999.0,no,no,no,300234011389160,IMB,AWI-USIABP,unknown,South
2014-01-22T21:00:00Z,1390424400,2014,21,0,22.875,22.875,-77.66108,-34.99202,-999.00,-999.00,-999.0,no,no,no,300234011389160,IMB,AWI-USIABP,unknown,South
2014-01-23T03:00:00Z,1390446000,2014,3,0,23.125,23.125,-77.70984,-34.95065,-999.00,-999.00,-999.0,no,no,no,300234011389160,IMB,AWI-USIABP,unknown,South
2014-01-23T09:00:00Z,1390467600,2014,9,0,23.375,23.375,-77.66959,-35.22565,-999.00,-999.00,-999.0,no,no,no,300234011389160,IMB,AWI-USIABP,unknown,South
2014-01-23T15:00:00Z,1390489200,2014,15,0,23.625,23.625,-77.66108,-34.99202,-999.00,-999.00,-999.0,no,no,no,300234011389160,IMB,AWI-USIABP,unknown,South
2014-01-23T21:00:00Z,1390510800,2014,21,0,23.875,23.875,-77.67789,-35.45962,-999.00,-999.00,-999.0,no,no,no,300234011389160,IMB,AWI-USIABP,unknown,South
2014-01-24T03:00:00Z,1390532400,2014,3,0,24.125,24.125,-77.66108,-34.99202,-999.00,-999.00,-999.0,no,no,no,300234011389160,IMB,AWI-USIABP,unknown,South
2014-01-24T09:00:00Z,1390554000,2014,9,0,24.375,24.375,-78.00994,-39.87181,-999.00,-999.00,-999.0,no,no,no,300234011389160,IMB,AWI-USIABP,unknown,South
2014-01-24T15:00:00Z,1390575600,2014,15,0,24.625,24.625,-77.66108,-34.99202,-999.00,-999.00,-999.0,no,no,no,300234011389160,IMB,AWI-USIABP,unknown,South
2014-01-24T21:00:00Z,1390597200,2014,21,0,24.875,24.875,-77.7011,-34.71643,-999.00,-999.00,-999.0,no,no,no,300234011389160,IMB,AWI-USIABP,unknown,South
2014-01-25T03:00:00Z,1390618800,2014,3,0,25.125,25.125,-77.64936,-35.36246,-999.00,-999.00,-999.0,no,no,no,300234011389160,IMB,AWI-USIABP,unknown,South
2014-01-25T09:00:00Z,1390640400,2014,9,0,25.375,25.375,-77.64097,-35.12912,-999.00,-999.00,-999.0,no,no,no,300234011389160,IMB,AWI-USIABP,unknown,South
2014-01-25T15:00:00Z,1390662000,2014,15,0,25.625,25.625,-77.69817,-35.32265,-999.00,-999.00,-999.0,no,no,no,300234011389160,IMB,AWI-USIABP,unknown,South
2014-01-25T21:00:00Z,1390683600,2014,21,0,25.875,25.875,-77.68975,-35.08838,-999.00,-999.00,-999.0,no,no,no,300234011389160,IMB,AWI-USIABP,unknown,South
2014-01-26T03:00:00Z,1390705200,2014,3,0,26.125,26.125,-77.54649,-38.99714,-999.00,-999.00,-999.0,no,no,no,300234011389160,IMB,AWI-USIABP,unknown,South
2014-01-26T09:00:00Z,1390726800,2014,9,0,26.375,26.375,-77.66959,-35.22565,-999.00,-999.00,-999.0,no,no,no,300234011389160,IMB,AWI-USIABP,unknown,South
2014-01-26T15:00:00Z,1390748400,2014,15,0,26.625,26.625,-77.66108,-34.99202,-999.00,-999.00,-999.0,no,no,no,300234011389160,IMB,AWI-USIABP,unknown,South
2014-01-26T21:00:00Z,1390770000,2014,21,0,26.875,26.875,-77.71747,-34.95065,-999.00,-999.00,-999.0,no,no,no,300234011389160,IMB,AWI-USIABP,unknown,South
2014-01-27T03:00:00Z,1390791600,2014,3,0,27.125,27.125,-77.66108,-34.99202,-999.00,-999.00,-999.0,no,no,no,300234011389160,IMB,AWI-USIABP,unknown,South
2014-01-27T09:00:00Z,1390813200,2014,9,0,27.375,27.375,-77.64097,-35.12912,-999.00,-999.00,-999.0,no,no,no,300234011389160,IMB,AWI-USIABP,unknown,South
2014-01-27T15:00:00Z,1390834800,2014,15,0,27.625,27.625,-77.66108,-34.99202,-999.00,-999.00,-999.0,no,no,no,300234011389160,IMB,AWI-USIABP,unknown,South
2014-01-27T21:00:00Z,1390856400,2014,21,0,27.875,27.875,-77.66108,-34.99202,-999.00,-999.00,-999.0,no,no,no,300234011389160,IMB,AWI-USIABP,unknown,South
2014-01-28T03:00:00Z,1390878000,2014,3,0,28.125,28.125,-77.66959,-35.22565,-999.00,-999.00,-999.0,no,no,no,300234011389160,IMB,AWI-USIABP,unknown,South
2014-01-28T09:00:00Z,1390899600,2014,9,0,28.375,28.375,-77.64097,-35.12912,-999.00,-999.00,-999.0,no,no,no,300234011389160,IMB,AWI-USIABP,unknown,South
2014-01-28T15:00:00Z,1390921200,2014,15,0,28.625,28.625,-77.64097,-35.12912,-999.00,-999.00,-999.0,no,no,no,300234011389160,IMB,AWI-USIABP,unknown,South
2014-01-28T21:00:00Z,1390942800,2014,21,0,28.875,28.875,-77.68975,-35.08838,-999.00,-999.00,-999.0,no,no,no,300234011389160,IMB,AWI-USIABP,unknown,South
2014-01-29T03:00:00Z,1390964400,2014,3,0,29.125,29.125,-77.69738,-35.08838,-999.00,-999.00,-999.0,no,no,no,300234011389160,IMB,AWI-USIABP,unknown,South
2014-01-29T09:00:00Z,1390986000,2014,9,0,29.375,29.375,-77.67789,-35.45962,-999.00,-999.00,-999.0,no,no,no,300234011389160,IMB,AWI-USIABP,unknown,South
2014-01-29T15:00:00Z,1391007600,2014,15,0,29.625,29.625,-77.68975,-35.08838,-999.00,-999.00,-999.0,no,no,no,300234011389160,IMB,AWI-USIABP,unknown,South
2014-01-29T21:00:00Z,1391029200,2014,21,0,29.875,29.875,-77.726,-35.18521,-999.00,-999.00,-999.0,no,no,no,300234011389160,IMB,AWI-USIABP,unknown,South
2014-01-30T03:00:00Z,1391050800,2014,3,0,30.125,30.125,-77.66959,-35.22565,-999.00,-999.00,-999.0,no,no,no,300234011389160,IMB,AWI-USIABP,unknown,South
2014-01-30T09:00:00Z,1391072400,2014,9,0,30.375,30.375,-77.66959,-35.22565,-999.00,-999.00,-999.0,no,no,no,300234011389160,IMB,AWI-USIABP,unknown,South
2014-01-30T15:00:00Z,1391094000,2014,15,0,30.625,30.625,-77.68975,-35.08838,-999.00,-999.00,-999.0,no,no,no,300234011389160,IMB,AWI-USIABP,unknown,South
2014-01-30T21:00:00Z,1391115600,2014,21,0,30.875,30.875,-77.73434,-35.42011,-999.00,-999.00,-999.0,no,no,no,300234011389160,IMB,AWI-USIABP,unknown,South
2014-01-31T03:00:00Z,1391137200,2014,3,0,31.125,31.125,-77.67789,-35.45962,-999.00,-999.00,-999.0,no,no,no,300234011389160,IMB,AWI-USIABP,unknown,South
2014-01-31T09:00:00Z,1391158800,2014,9,0,31.375,31.375,-77.66959,-35.22565,-999.00,-999.00,-999.0,no,no,no,300234011389160,IMB,AWI-USIABP,unknown,South
2014-01-31T15:00:00Z,1391180400,2014,15,0,31.625,31.625,-77.66959,-35.22565,-999.00,-999.00,-999.0,no,no,no,300234011389160,IMB,AWI-USIABP,unknown,South
2014-01-31T21:00:00Z,1391202000,2014,21,0,31.875,31.875,-77.68975,-35.08838,-999.00,-999.00,-999.0,no,no,no,300234011389160,IMB,AWI-USIABP,unknown,South
2014-02-01T03:00:00Z,1391223600,2014,3,0,32.125,32.125,-77.726,-35.18521,-999.00,-999.00,-999.0,no,no,no,300234011389160,IMB,AWI-USIABP,unknown,South
2014-02-01T09:00:00Z,1391245200,2014,9,0,32.375,32.375,-77.67789,-35.45962,-999.00,-999.00,-999.0,no,no,no,300234011389160,IMB,AWI-USIABP,unknown,South
2014-02-01T15:00:00Z,1391266800,2014,15,0,32.625,32.625,-77.68975,-35.08838,-999.00,-999.00,-999.0,no,no,no,300234011389160,IMB,AWI-USIABP,unknown,South
2014-02-01T21:00:00Z,1391288400,2014,21,0,32.875,32.875,-77.726,-35.18521,-999.00,-999.00,-999.0,no,no,no,300234011389160,IMB,AWI-USIABP,unknown,South
2014-02-02T03:00:00Z,1391310000,2014,3,0,33.125,33.125,-77.64936,-35.36246,-999.00,-999.00,-999.0,no,no,no,300234011389160,IMB,AWI-USIABP,unknown,South
2014-02-02T09:00:00Z,1391331600,2014,9,0,33.375,33.375,-77.66959,-35.22565,-999.00,-999.00,-999.0,no,no,no,300234011389160,IMB,AWI-USIABP,unknown,South
2014-02-02T15:00:00Z,1391353200,2014,15,0,33.625,33.625,-77.66959,-35.22565,-999.00,-999.00,-999.0,no,no,no,300234011389160,IMB,AWI-USIABP,unknown,South
2014-02-02T21:00:00Z,1391374800,2014,21,0,33.875,33.875,-77.7058,-35.32265,-999.00,-999.00,-999.0,no,no,no,300234011389160,IMB,AWI-USIABP,unknown,South
2014-02-03T03:00:00Z,1391396400,2014,3,0,34.125,34.125,-77.67789,-35.45962,-999.00,-999.00,-999.0,no,no,no,300234011389160,IMB,AWI-USIABP,unknown,South
2014-02-03T09:00:00Z,1391418000,2014,9,0,34.375,34.375,-77.18619,-24.32356,-999.00,-999.00,-999.0,no,no,no,300234011389160,IMB,AWI-USIABP,unknown,South
2014-02-03T15:00:00Z,1391439600,2014,15,0,34.625,34.625,-77.64936,-35.36246,-999.00,-999.00,-999.0,no,no,no,300234011389160,IMB,AWI-USIABP,unknown,South
2014-02-03T21:00:00Z,1391461200,2014,21,0,34.875,34.875,-77.68975,-35.08838,-999.00,-999.00,-999.0,no,no,no,300234011389160,IMB,AWI-USIABP,unknown,South
2014-02-04T03:00:00Z,1391482800,2014,3,0,35.125,35.125,-77.64936,-35.36246,-999.00,-999.00,-999.0,no,no,no,300234011389160,IMB,AWI-USIABP,unknown,South
2014-02-04T09:00:00Z,1391504400,2014,9,0,35.375,35.375,-77.67789,-35.45962,-999.00,-999.00,-999.0,no,no,no,300234011389160,IMB,AWI-USIABP,unknown,South
2014-02-04T15:00:00Z,1391526000,2014,15,0,35.625,35.625,-77.68975,-35.08838,-999.00,-999.00,-999.0,no,no,no,300234011389160,IMB,AWI-USIABP,unknown,South
2014-02-04T21:00:00Z,1391547600,2014,21,0,35.875,35.875,-77.726,-35.18521,-999.00,-999.00,-999.0,no,no,no,300234011389160,IMB,AWI-USIABP,unknown,South
2014-02-05T03:00:00Z,1391569200,2014,3,0,36.125,36.125,-77.67789,-35.45962,-999.00,-999.00,-999.0,no,no,no,300234011389160,IMB,AWI-USIABP,unknown,South
2014-02-05T09:00:00Z,1391590800,2014,9,0,36.375,36.375,-77.64936,-35.36246,-999.00,-999.00,-999.0,no,no,no,300234011389160,IMB,AWI-USIABP,unknown,South
2014-02-05T15:00:00Z,1391612400,2014,15,0,36.625,36.625,-77.69817,-35.32265,-999.00,-999.00,-999.0,no,no,no,300234011389160,IMB,AWI-USIABP,unknown,South
2014-02-05T21:00:00Z,1391634000,2014,21,0,36.875,36.875,-77.7058,-35.32265,-999.00,-999.00,-999.0,no,no,no,300234011389160,IMB,AWI-USIABP,unknown,South
2014-02-06T03:00:00Z,1391655600,2014,3,0,37.125,37.125,-77.7064,-35.55724,-999.00,-999.00,-999.0,no,no,no,300234011389160,IMB,AWI-USIABP,unknown,South
2014-02-06T09:00:00Z,1391677200,2014,9,0,37.375,37.375,-77.71402,-35.55724,-999.00,-999.00,-999.0,no,no,no,300234011389160,IMB,AWI-USIABP,unknown,South
2014-02-06T15:00:00Z,1391698800,2014,15,0,37.625,37.625,-77.67789,-35.45962,-999.00,-999.00,-999.0,no,no,no,300234011389160,IMB,AWI-USIABP,unknown,South
2014-02-06T21:00:00Z,1391720400,2014,21,0,37.875,37.875,-77.7058,-35.32265,-999.00,-999.00,-999.0,no,no,no,300234011389160,IMB,AWI-USIABP,unknown,South
2014-02-07T03:00:00Z,1391742000,2014,3,0,38.125,38.125,-77.67789,-35.45962,-999.00,-999.00,-999.0,no,no,no,300234011389160,IMB,AWI-USIABP,unknown,South
2014-02-07T09:00:00Z,1391763600,2014,9,0,38.375,38.375,-77.3698,-29.27742,-999.00,-999.00,-999.0,no,no,no,300234011389160,IMB,AWI-USIABP,unknown,South
2014-02-07T15:00:00Z,1391785200,2014,15,0,38.625,38.625,-77.7058,-35.32265,-999.00,-999.00,-999.0,no,no,no,300234011389160,IMB,AWI-USIABP,unknown,South
2014-02-07T21:00:00Z,1391806800,2014,21,0,38.875,38.875,-77.76285,-35.51804,-999.00,-999.00,-999.0,no,no,no,300234011389160,IMB,AWI-USIABP,unknown,South
2014-02-08T03:00:00Z,1391828400,2014,3,0,39.125,39.125,-77.74248,-35.65533,-999.00,-999.00,-999.0,no,no,no,300234011389160,IMB,AWI-USIABP,unknown,South
2014-02-08T09:00:00Z,1391850000,2014,9,0,39.375,39.375,-77.7064,-35.55724,-999.00,-999.00,-999.0,no,no,no,300234011389160,IMB,AWI-USIABP,unknown,South
2014-02-08T15:00:00Z,1391871600,2014,15,0,39.625,39.625,-77.71402,-35.55724,-999.00,-999.00,-999.0,no,no,no,300234011389160,IMB,AWI-USIABP,unknown,South
2014-02-08T21:00:00Z,1391893200,2014,21,0,39.875,39.875,-77.73434,-35.42011,-999.00,-999.00,-999.0,no,no,no,300234011389160,IMB,AWI-USIABP,unknown,South
2014-02-09T03:00:00Z,1391914800,2014,3,0,40.125,40.125,-77.71402,-35.55724,-999.00,-999.00,-999.0,no,no,no,300234011389160,IMB,AWI-USIABP,unknown,South
2014-02-09T09:00:00Z,1391936400,2014,9,0,40.375,40.375,-77.49854,-32.49658,-999.00,-999.00,-999.0,no,no,no,300234011389160,IMB,AWI-USIABP,unknown,South
2014-02-09T15:00:00Z,1391958000,2014,15,0,40.625,40.625,-77.71402,-35.55724,-999.00,-999.00,-999.0,no,no,no,300234011389160,IMB,AWI-USIABP,unknown,South
2014-02-09T21:00:00Z,1391979600,2014,21,0,40.875,40.875,-77.73434,-35.42011,-999.00,-999.00,-999.0,no,no,no,300234011389160,IMB,AWI-USIABP,unknown,South
2014-02-10T03:00:00Z,1392001200,2014,3,0,41.125,41.125,-78.0901,-30.60641,-999.00,-999.00,-999.0,no,no,no,300234011389160,IMB,AWI-USIABP,unknown,South
2014-02-10T09:00:00Z,1392022800,2014,9,0,41.375,41.375,-77.5668,-33.27489,-999.00,-999.00,-999.0,no,no,no,300234011389160,IMB,AWI-USIABP,unknown,South
2014-02-10T15:00:00Z,1392044400,2014,15,0,41.625,41.625,-77.69817,-35.32265,-999.00,-999.00,-999.0,no,no,no,300234011389160,IMB,AWI-USIABP,unknown,South
2014-02-10T21:00:00Z,1392066000,2014,21,0,41.875,41.875,-77.73434,-35.42011,-999.00,-999.00,-999.0,no,no,no,300234011389160,IMB,AWI-USIABP,unknown,South
2014-02-11T03:00:00Z,1392087600,2014,3,0,42.125,42.125,-77.74248,-35.65533,-999.00,-999.00,-999.0,no,no,no,300234011389160,IMB,AWI-USIABP,unknown,South
2014-02-11T09:00:00Z,1392109200,2014,9,0,42.375,42.375,-77.7064,-35.55724,-999.00,-999.00,-999.0,no,no,no,300234011389160,IMB,AWI-USIABP,unknown,South
2014-02-11T15:00:00Z,1392130800,2014,15,0,42.625,42.625,-77.7064,-35.55724,-999.00,-999.00,-999.0,no,no,no,300234011389160,IMB,AWI-USIABP,unknown,South
2014-02-11T21:00:00Z,1392152400,2014,21,0,42.875,42.875,-77.73434,-35.42011,-999.00,-999.00,-999.0,no,no,no,300234011389160,IMB,AWI-USIABP,unknown,South
2014-02-12T03:00:00Z,1392174000,2014,3,0,43.125,43.125,-77.91875,-32.31371,-999.00,-999.00,-999.0,no,no,no,300234011389160,IMB,AWI-USIABP,unknown,South
2014-02-12T09:00:00Z,1392195600,2014,9,0,43.375,43.375,-77.71402,-35.55724,-999.00,-999.00,-999.0,no,no,no,300234011389160,IMB,AWI-USIABP,unknown,South
2014-02-12T15:00:00Z,1392217200,2014,15,0,43.625,43.625,-77.67789,-35.45962,-999.00,-999.00,-999.0,no,no,no,300234011389160,IMB,AWI-USIABP,unknown,South
2014-02-12T21:00:00Z,1392238800,2014,21,0,43.875,43.875,-77.73434,-35.42011,-999.00,-999.00,-999.0,no,no,no,300234011389160,IMB,AWI-USIABP,unknown,South
2014-02-13T03:00:00Z,1392260400,2014,3,0,44.125,44.125,-77.79713,-34.39507,-999.00,-999.00,-999.0,no,no,no,300234011389160,IMB,AWI-USIABP,unknown,South
2014-02-13T09:00:00Z,1392282000,2014,9,0,44.375,44.375,-77.81501,-37.17538,-999.00,-999.00,-999.0,no,no,no,300234011389160,IMB,AWI-USIABP,unknown,South
2014-02-13T15:00:00Z,1392303600,2014,15,0,44.625,44.625,-77.7064,-35.55724,-999.00,-999.00,-999.0,no,no,no,300234011389160,IMB,AWI-USIABP,unknown,South
2014-02-13T21:00:00Z,1392325200,2014,21,0,44.875,44.875,-77.76285,-35.51804,-999.00,-999.00,-999.0,no,no,no,300234011389160,IMB,AWI-USIABP,unknown,South
2014-02-14T03:00:00Z,1392346800,2014,3,0,45.125,45.125,-77.72204,-35.79215,-999.00,-999.00,-999.0,no,no,no,300234011389160,IMB,AWI-USIABP,unknown,South
2014-02-14T09:00:00Z,1392368400,2014,9,0,45.375,45.375,-77.69364,-35.6939,-999.00,-999.00,-999.0,no,no,no,300234011389160,IMB,AWI-USIABP,unknown,South
2014-02-14T15:00:00Z,1392390000,2014,15,0,45.625,45.625,-77.71402,-35.55724,-999.00,-999.00,-999.0,no,no,no,300234011389160,IMB,AWI-USIABP,unknown,South
2014-02-14T21:00:00Z,1392411600,2014,21,0,45.875,45.875,-77.73434,-35.42011,-999.00,-999.00,-999.0,no,no,no,300234011389160,IMB,AWI-USIABP,unknown,South
2014-02-15T03:00:00Z,1392433200,2014,3,0,46.125,46.125,-77.70924,-36.16341,-999.00,-999.00,-999.0,no,no,no,300234011389160,IMB,AWI-USIABP,unknown,South
2014-02-15T09:00:00Z,1392454800,2014,9,0,46.375,46.375,-77.72204,-35.79215,-999.00,-999.00,-999.0,no,no,no,300234011389160,IMB,AWI-USIABP,unknown,South
2014-02-15T15:00:00Z,1392476400,2014,15,0,46.625,46.625,-77.686,-35.6939,-999.00,-999.00,-999.0,no,no,no,300234011389160,IMB,AWI-USIABP,unknown,South
2014-02-15T21:00:00Z,1392498000,2014,21,0,46.875,46.875,-77.73434,-35.42011,-999.00,-999.00,-999.0,no,no,no,300234011389160,IMB,AWI-USIABP,unknown,South
2014-02-16T03:00:00Z,1392519600,2014,3,0,47.125,47.125,-77.79133,-35.61643,-999.00,-999.00,-999.0,no,no,no,300234011389160,IMB,AWI-USIABP,unknown,South
2014-02-16T09:00:00Z,1392541200,2014,9,0,47.375,47.375,-78.1358,-41.05481,-999.00,-999.00,-999.0,no,no,no,300234011389160,IMB,AWI-USIABP,unknown,South
2014-02-16T15:00:00Z,1392562800,2014,15,0,47.625,47.625,-77.73434,-35.42011,-999.00,-999.00,-999.0,no,no,no,300234011389160,IMB,AWI-USIABP,unknown,South
2014-02-16T21:00:00Z,1392584400,2014,21,0,47.875,47.875,-77.76285,-35.51804,-999.00,-999.00,-999.0,no,no,no,300234011389160,IMB,AWI-USIABP,unknown,South
2014-02-17T03:00:00Z,1392606000,2014,3,0,48.125,48.125,-77.72204,-35.79215,-999.00,-999.00,-999.0,no,no,no,300234011389160,IMB,AWI-USIABP,unknown,South
2014-02-17T09:00:00Z,1392627600,2014,9,0,48.375,48.375,-77.72204,-35.79215,-999.00,-999.00,-999.0,no,no,no,300234011389160,IMB,AWI-USIABP,unknown,South
2014-02-17T15:00:00Z,1392649200,2014,15,0,48.625,48.625,-77.71402,-35.55724,-999.00,-999.00,-999.0,no,no,no,300234011389160,IMB,AWI-USIABP,unknown,South
2014-02-17T21:00:00Z,1392670800,2014,21,0,48.875,48.875,-77.73434,-35.42011,-999.00,-999.00,-999.0,no,no,no,300234011389160,IMB,AWI-USIABP,unknown,South
2014-02-18T03:00:00Z,1392692400,2014,3,0,49.125,49.125,-77.72204,-35.79215,-999.00,-999.00,-999.0,no,no,no,300234011389160,IMB,AWI-USIABP,unknown,South
2014-02-18T09:00:00Z,1392714000,2014,9,0,49.375,49.375,-77.72204,-35.79215,-999.00,-999.00,-999.0,no,no,no,300234011389160,IMB,AWI-USIABP,unknown,South
2014-02-18T15:00:00Z,1392735600,2014,15,0,49.625,49.625,-77.686,-35.6939,-999.00,-999.00,-999.0,no,no,no,300234011389160,IMB,AWI-USIABP,unknown,South
2014-02-18T21:00:00Z,1392757200,2014,21,0,49.875,49.875,-77.71402,-35.55724,-999.00,-999.00,-999.0,no,no,no,300234011389160,IMB,AWI-USIABP,unknown,South
2014-02-19T03:00:00Z,1392778800,2014,3,0,50.125,50.125,-77.39368,-42.32891,-999.00,-999.00,-999.0,no,no,no,300234011389160,IMB,AWI-USIABP,unknown,South
2014-02-19T09:00:00Z,1392800400,2014,9,0,50.375,50.375,-77.67789,-35.45962,-999.00,-999.00,-999.0,no,no,no,300234011389160,IMB,AWI-USIABP,unknown,South
2014-02-19T15:00:00Z,1392822000,2014,15,0,50.625,50.625,-77.74248,-35.65533,-999.00,-999.00,-999.0,no,no,no,300234011389160,IMB,AWI-USIABP,unknown,South
2014-02-19T21:00:00Z,1392843600,2014,21,0,50.875,50.875,-77.7064,-35.55724,-999.00,-999.00,-999.0,no,no,no,300234011389160,IMB,AWI-USIABP,unknown,South
2014-02-20T03:00:00Z,1392865200,2014,3,0,51.125,51.125,-77.72204,-35.79215,-999.00,-999.00,-999.0,no,no,no,300234011389160,IMB,AWI-USIABP,unknown,South
2014-02-20T09:00:00Z,1392886800,2014,9,0,51.375,51.375,-77.686,-35.6939,-999.00,-999.00,-999.0,no,no,no,300234011389160,IMB,AWI-USIABP,unknown,South
2014-02-20T15:00:00Z,1392908400,2014,15,0,51.625,51.625,-77.7064,-35.55724,-999.00,-999.00,-999.0,no,no,no,300234011389160,IMB,AWI-USIABP,unknown,South
2014-02-20T21:00:00Z,1392930000,2014,21,0,51.875,51.875,-77.71402,-35.55724,-999.00,-999.00,-999.0,no,no,no,300234011389160,IMB,AWI-USIABP,unknown,South
2014-02-21T03:00:00Z,1392951600,2014,3,0,52.125,52.125,-77.72204,-35.79215,-999.00,-999.00,-999.0,no,no,no,300234011389160,IMB,AWI-USIABP,unknown,South
2014-02-21T09:00:00Z,1392973200,2014,9,0,52.375,52.375,-77.72204,-35.79215,-999.00,-999.00,-999.0,no,no,no,300234011389160,IMB,AWI-USIABP,unknown,South
2014-02-21T15:00:00Z,1392994800,2014,15,0,52.625,52.625,-77.686,-35.6939,-999.00,-999.00,-999.0,no,no,no,300234011389160,IMB,AWI-USIABP,unknown,South
2014-02-21T21:00:00Z,1393016400,2014,21,0,52.875,52.875,-77.73434,-35.42011,-999.00,-999.00,-999.0,no,no,no,300234011389160,IMB,AWI-USIABP,unknown,South
2014-02-22T03:00:00Z,1393038000,2014,3,0,53.125,53.125,-77.29595,-46.49834,-999.00,-999.00,-999.0,no,no,no,300234011389160,IMB,AWI-USIABP,unknown,South
2014-02-22T09:00:00Z,1393059600,2014,9,0,53.375,53.375,-77.65755,-35.59612,-999.00,-999.00,-999.0,no,no,no,300234011389160,IMB,AWI-USIABP,unknown,South